Guam Agana, GU

9:54 PM ChST on November 13, 2019 (GMT +1000)
Guam International

Weather History for PGUM - October, 2019

Change the Weather History Date:

Sunday, October 13, 2019

  Actual Average Record
Temperature  
Mean Temperature 80 °F -  
Max Temperature 87 °F 84 °F 95 °F (2010)
Min Temperature 73 °F 75 °F 73 °F (2005)
Cooling Degree Days 15    
Growing Degree Days 30 (Base 50)    
Moisture  
Dew Point 75 °F    
Average Humidity 83    
Maximum Humidity 93    
Minimum Humidity 67    
Precipitation  
Precipitation 0.35 in - - ()
Sea Level Pressure  
Sea Level Pressure 29.83 in    
Wind  
Wind Speed 6 mph ()    
Max Wind Speed 15 mph    
Max Gust Speed -    
Visibility 9.2 miles    
Events Rain    
Averages and records for this station are not official NWS values.
T = Trace of Precipitation, MM = Missing Value Source: Averaged Metar Reports

Daily Weather History Graph

Daily Weather History Graph

Search for Another Location

Airport or City:

Astronomy

Oct. 13, 2019 Rise Set
Actual Time 6:11 AM ChST 6:03 PM ChST
Civil Twilight 5:49 AM ChST 6:24 PM ChST
Nautical Twilight 5:24 AM ChST 6:49 PM ChST
Astronomical Twilight 5:00 AM ChST 7:14 PM ChST
Moon 5:52 PM ChST 5:29 AM ChST
Length of Visible Light 12h 34m
Length of Day
11h 52m
Waxing Gibbous, 99% of the Moon is Illuminated
Oct 13
Waxing Gibbous
Oct 14
Full
Oct 21
Last Quarter
Oct 28
New
Nov 4
First Quarter

Hourly Weather History & Observations

Time (ChST) Temp. Heat Index Dew Point Humidity Pressure Visibility Wind Dir Wind Speed Gust Speed Precip Events Conditions
12:54 AM 78.1 °F - 73.9 °F 87% 29.80 in 10.0 mi NE 5.8 mph - N/A   Clear
1:54 AM 78.1 °F - 73.9 °F 87% 29.79 in 10.0 mi NE 3.5 mph - N/A   Clear
2:54 AM 77.0 °F - 73.9 °F 90% 29.78 in 10.0 mi North 5.8 mph - N/A   Clear
3:54 AM 77.0 °F - 73.9 °F 90% 29.78 in 10.0 mi NE 5.8 mph - N/A   Clear
4:54 AM 78.1 °F - 73.9 °F 87% 29.78 in 10.0 mi NE 5.8 mph - N/A   Scattered Clouds
5:30 AM 78.1 °F - 75.0 °F 90% 29.82 in 1.8 mi NE 15.0 mph - 0.05 in Rain Heavy Rain
5:44 AM 73.9 °F - 72.0 °F 93% 29.82 in 3.0 mi North 8.1 mph - 0.18 in Rain Light Rain
5:54 AM 73.9 °F - 71.1 °F 91% 29.81 in 10.0 mi NNW 5.8 mph - 0.18 in Rain Light Rain
6:54 AM 77.0 °F - 73.9 °F 90% 29.84 in 10.0 mi Calm Calm - 0.00 in   Clear
7:54 AM 80.1 °F 85.4 °F 75.9 °F 87% 29.86 in 10.0 mi East 5.8 mph - N/A   Clear
8:54 AM 84.0 °F 93.7 °F 77.0 °F 79% 29.86 in 10.0 mi East 10.4 mph - N/A   Clear
9:54 AM 84.9 °F 93.3 °F 75.0 °F 72% 29.86 in 10.0 mi East 10.4 mph - N/A   Partly Cloudy
10:54 AM 84.0 °F 92.6 °F 75.9 °F 76% 29.85 in 10.0 mi East 10.4 mph - N/A   Scattered Clouds
11:12 AM 84.9 °F 94.1 °F 75.9 °F 74% 29.87 in 10.0 mi East 9.2 mph - N/A   Mostly Cloudy
11:46 AM 87.1 °F 97.3 °F 75.9 °F 69% 29.86 in 10.0 mi East 10.4 mph - N/A   Scattered Clouds
11:54 AM 86.0 °F 96.0 °F 75.9 °F 72% 29.83 in 10.0 mi East 8.1 mph - N/A   Scattered Clouds
12:54 PM 87.1 °F 96.3 °F 75.0 °F 67% 29.81 in 10.0 mi East 10.4 mph - N/A   Scattered Clouds
1:54 PM 82.0 °F 88.6 °F 75.0 °F 79% 29.79 in 10.0 mi ESE 9.2 mph - 0.01 in Rain Light Rain
2:54 PM 82.9 °F 90.2 °F 75.0 °F 77% 29.78 in 10.0 mi East 10.4 mph - 0.00 in   Mostly Cloudy
3:54 PM 82.0 °F 90.2 °F 77.0 °F 85% 29.78 in 10.0 mi East 6.9 mph - 0.00 in   Clear
4:54 PM 84.0 °F 91.9 °F 75.0 °F 74% 29.79 in 10.0 mi ENE 9.2 mph - N/A   Partly Cloudy
5:54 PM 82.0 °F 89.4 °F 75.9 °F 82% 29.81 in 10.0 mi East 5.8 mph - N/A   Clear
6:54 PM 81.0 °F 87.3 °F 75.9 °F 85% 29.83 in 10.0 mi East 5.8 mph - N/A   Clear
7:54 PM 81.0 °F 87.3 °F 75.9 °F 85% 29.85 in 10.0 mi ESE 3.5 mph - N/A   Clear
8:54 PM 81.0 °F 87.9 °F 77.0 °F 88% 29.87 in 10.0 mi East 3.5 mph - 0.09 in   Partly Cloudy
9:54 PM 80.1 °F 85.4 °F 75.9 °F 87% 29.88 in 5.0 mi East 5.8 mph - 0.00 in Rain Light Rain
10:54 PM 79.0 °F - 75.9 °F 90% 29.87 in 9.0 mi ESE 5.8 mph - 0.02 in   Mostly Cloudy
11:54 PM 80.1 °F 85.4 °F 75.9 °F 87% 29.86 in 10.0 mi East 4.6 mph - 0.05 in   Mostly Cloudy